Time,TemperatureF,DewpointF,PressureIn,WindDirection,WindDirectionDegrees,WindSpeedMPH,WindSpeedGustMPH,Humidity,HourlyPrecipIn,Conditions,Clouds,dailyrainin,SoftwareType,DateUTC
2013-03-02 00:01:00,12.3,6.0,30.28,NNE,22,1.0,-999.0,75,-99.99,,,0.00,weatherlink.com 1.10,2013-03-02 06:01:00,
2013-03-02 00:16:00,12.3,6.0,30.28,NNE,22,1.0,-999.0,75,-99.99,,,0.00,weatherlink.com 1.10,2013-03-02 06:16:00,
2013-03-02 00:31:00,12.4,6.0,30.28,NNE,22,0.0,-999.0,76,-99.99,,,0.00,weatherlink.com 1.10,2013-03-02 06:31:00,
2013-03-02 00:46:00,12.4,6.0,30.28,NNE,22,1.0,-999.0,75,-99.99,,,0.00,weatherlink.com 1.10,2013-03-02 06:46:00,
2013-03-02 01:01:00,12.3,6.0,30.28,NNE,22,0.0,-999.0,75,-99.99,,,0.00,weatherlink.com 1.10,2013-03-02 07:01:00,
2013-03-02 01:16:00,12.1,6.0,30.28,NNE,22,1.0,-999.0,75,-99.99,,,0.00,weatherlink.com 1.10,2013-03-02 07:16:00,
2013-03-02 01:31:00,11.7,5.0,30.28,NNE,22,2.0,-999.0,75,-99.99,,,0.00,weatherlink.com 1.10,2013-03-02 07:31:00,
2013-03-02 01:46:00,11.7,5.0,30.27,NNE,22,4.0,-999.0,75,-99.99,,,0.00,weatherlink.com 1.10,2013-03-02 07:46:00,
2013-03-02 02:01:00,11.6,5.0,30.27,NNE,22,1.0,-999.0,75,-99.99,,,0.00,weatherlink.com 1.10,2013-03-02 08:01:00,
2013-03-02 02:16:00,11.4,5.0,30.26,NNE,22,3.0,-999.0,75,-99.99,,,0.00,weatherlink.com 1.10,2013-03-02 08:16:00,
2013-03-02 02:31:00,11.1,5.0,30.27,NNE,22,2.0,-999.0,76,-99.99,,,0.00,weatherlink.com 1.10,2013-03-02 08:31:00,
2013-03-02 02:46:00,11.2,5.0,30.26,NNE,22,2.0,-999.0,76,-99.99,,,0.00,weatherlink.com 1.10,2013-03-02 08:46:00,
2013-03-02 03:01:00,11.2,5.0,30.26,NNE,22,3.0,-999.0,76,-99.99,,,0.00,weatherlink.com 1.10,2013-03-02 09:01:00,
2013-03-02 03:16:00,11.1,5.0,30.26,NNE,22,3.0,-999.0,76,-99.99,,,0.00,weatherlink.com 1.10,2013-03-02 09:16:00,
2013-03-02 03:31:00,11.1,5.0,30.26,NNE,16,3.0,-999.0,76,-99.99,,,0.00,weatherlink.com 1.10,2013-03-02 09:31:00,
2013-03-02 03:46:00,10.9,5.0,30.26,North,355,1.0,-999.0,76,-99.99,,,0.00,weatherlink.com 1.10,2013-03-02 09:46:00,
2013-03-02 04:01:00,10.9,5.0,30.26,NNW,346,2.0,-999.0,76,-99.99,,,0.00,weatherlink.com 1.10,2013-03-02 10:01:00,
2013-03-02 04:16:00,10.9,5.0,30.26,North,355,2.0,-999.0,76,-99.99,,,0.00,weatherlink.com 1.10,2013-03-02 10:16:00,
2013-03-02 04:31:00,11.2,5.0,30.26,North,9,3.0,-999.0,76,-99.99,,,0.00,weatherlink.com 1.10,2013-03-02 10:31:00,
2013-03-02 04:46:00,11.1,5.0,30.27,North,9,2.0,-999.0,75,-99.99,,,0.00,weatherlink.com 1.10,2013-03-02 10:46:00,
2013-03-02 05:01:00,10.4,4.0,30.27,North,9,2.0,-999.0,76,-99.99,,,0.00,weatherlink.com 1.10,2013-03-02 11:01:00,
2013-03-02 05:16:00,10.4,4.0,30.26,North,9,3.0,-999.0,76,-99.99,,,0.00,weatherlink.com 1.10,2013-03-02 11:16:00,
2013-03-02 05:31:00,10.2,4.0,30.27,North,5,3.0,-999.0,76,-99.99,,,0.00,weatherlink.com 1.10,2013-03-02 11:31:00,
2013-03-02 05:46:00,10.4,4.0,30.27,North,5,3.0,-999.0,76,-99.99,,,0.00,weatherlink.com 1.10,2013-03-02 11:46:00,
2013-03-02 06:01:00,10.2,4.0,30.27,NNE,14,4.0,-999.0,77,-99.99,,,0.00,weatherlink.com 1.10,2013-03-02 12:01:00,
2013-03-02 06:16:00,10.9,5.0,30.27,North,11,3.0,-999.0,76,-99.99,,,0.00,weatherlink.com 1.10,2013-03-02 12:16:00,
2013-03-02 06:31:00,10.9,5.0,30.27,NNE,12,4.0,-999.0,76,-99.99,,,0.00,weatherlink.com 1.10,2013-03-02 12:31:00,
2013-03-02 06:46:00,11.4,5.0,30.27,North,360,6.0,-999.0,76,-99.99,,,0.00,weatherlink.com 1.10,2013-03-02 12:46:00,
2013-03-02 07:01:00,11.7,6.0,30.27,North,351,9.0,-999.0,76,-99.99,,,0.00,weatherlink.com 1.10,2013-03-02 13:01:00,
2013-03-02 07:16:00,12.1,6.0,30.28,North,355,4.0,-999.0,76,-99.99,,,0.00,weatherlink.com 1.10,2013-03-02 13:16:00,
2013-03-02 07:31:00,12.4,6.0,30.28,North,355,6.0,-999.0,76,-99.99,,,0.00,weatherlink.com 1.10,2013-03-02 13:31:00,
2013-03-02 07:46:00,12.9,7.0,30.28,NNW,336,5.0,-999.0,77,-99.99,,,0.00,weatherlink.com 1.10,2013-03-02 13:46:00,
2013-03-02 08:01:00,13.1,7.0,30.28,NNW,337,4.0,-999.0,77,-99.99,,,0.00,weatherlink.com 1.10,2013-03-02 14:01:00,
2013-03-02 08:16:00,14.0,8.0,30.28,NNW,348,6.0,-999.0,78,-99.99,,,0.00,weatherlink.com 1.10,2013-03-02 14:16:00,
2013-03-02 08:31:00,14.6,9.0,30.27,North,360,6.0,-999.0,77,-99.99,,,0.00,weatherlink.com 1.10,2013-03-02 14:31:00,
2013-03-02 08:46:00,15.4,9.0,30.27,NNW,333,4.0,-999.0,76,-99.99,,,0.00,weatherlink.com 1.10,2013-03-02 14:46:00,
2013-03-02 09:01:00,16.2,9.0,30.27,NNW,334,9.0,-999.0,74,-99.99,,,0.00,weatherlink.com 1.10,2013-03-02 15:01:00,
2013-03-02 09:16:00,16.7,9.0,30.27,NNW,342,7.0,-999.0,73,-99.99,,,0.00,weatherlink.com 1.10,2013-03-02 15:16:00,
2013-03-02 09:31:00,17.3,10.0,30.27,NNW,344,9.0,-999.0,72,-99.99,,,0.00,weatherlink.com 1.10,2013-03-02 15:31:00,
2013-03-02 09:46:00,17.7,11.0,30.27,NNW,343,5.0,-999.0,74,-99.99,,,0.00,weatherlink.com 1.10,2013-03-02 15:46:00,
2013-03-02 10:01:00,19.1,11.0,30.27,North,349,9.0,-999.0,72,-99.99,,,0.00,weatherlink.com 1.10,2013-03-02 16:01:00,
2013-03-02 10:16:00,19.5,11.0,30.27,North,350,7.0,-999.0,69,-99.99,,,0.00,weatherlink.com 1.10,2013-03-02 16:16:00,
2013-03-02 10:31:00,20.6,12.0,30.27,North,355,8.0,-999.0,69,-99.99,,,0.00,weatherlink.com 1.10,2013-03-02 16:31:00,
2013-03-02 10:46:00,21.4,12.0,30.26,NNW,333,9.0,-999.0,66,-99.99,,,0.00,weatherlink.com 1.10,2013-03-02 16:46:00,
2013-03-02 11:01:00,21.8,13.0,30.26,North,349,11.0,-999.0,70,-99.99,,,0.00,weatherlink.com 1.10,2013-03-02 17:01:00,
2013-03-02 11:16:00,22.2,14.0,30.26,NNW,329,12.0,-999.0,71,-99.99,,,0.00,weatherlink.com 1.10,2013-03-02 17:16:00,
2013-03-02 11:31:00,22.1,14.0,30.25,NNW,348,11.0,-999.0,70,-99.99,,,0.00,weatherlink.com 1.10,2013-03-02 17:31:00,
2013-03-02 11:46:00,22.9,14.0,30.25,NNW,340,8.0,-999.0,69,-99.99,,,0.00,weatherlink.com 1.10,2013-03-02 17:46:00,
2013-03-02 12:01:00,23.9,13.0,30.24,North,355,9.0,-999.0,64,-99.99,,,0.00,weatherlink.com 1.10,2013-03-02 18:01:00,
2013-03-02 12:16:00,23.9,14.0,30.24,North,360,6.0,-999.0,65,-99.99,,,0.00,weatherlink.com 1.10,2013-03-02 18:16:00,
2013-03-02 12:31:00,25.0,13.0,30.23,NW,326,7.0,-999.0,60,-99.99,,,0.00,weatherlink.com 1.10,2013-03-02 18:31:00,
2013-03-02 12:46:00,24.8,15.0,30.23,North,350,6.0,-999.0,67,-99.99,,,0.00,weatherlink.com 1.10,2013-03-02 18:46:00,
2013-03-02 13:01:00,27.3,16.0,30.23,North,355,5.0,-999.0,62,-99.99,,,0.00,weatherlink.com 1.10,2013-03-02 19:01:00,
2013-03-02 13:16:00,26.7,15.0,30.22,NE,40,4.0,-999.0,61,-99.99,,,0.00,weatherlink.com 1.10,2013-03-02 19:16:00,
2013-03-02 13:31:00,28.1,15.0,30.21,NNW,347,4.0,-999.0,59,-99.99,,,0.00,weatherlink.com 1.10,2013-03-02 19:31:00,
2013-03-02 13:46:00,28.1,14.0,30.22,NNE,15,4.0,-999.0,55,-99.99,,,0.00,weatherlink.com 1.10,2013-03-02 19:46:00,
2013-03-02 14:01:00,28.7,16.0,30.21,North,355,3.0,-999.0,59,-99.99,,,0.00,weatherlink.com 1.10,2013-03-02 20:01:00,
2013-03-02 14:16:00,28.8,13.0,30.21,NNE,19,2.0,-999.0,52,-99.99,,,0.00,weatherlink.com 1.10,2013-03-02 20:16:00,
2013-03-02 14:31:00,30.6,14.0,30.20,NNE,13,3.0,-999.0,51,-99.99,,,0.00,weatherlink.com 1.10,2013-03-02 20:31:00,
2013-03-02 14:46:00,30.4,13.0,30.20,NNW,337,6.0,-999.0,49,-99.99,,,0.00,weatherlink.com 1.10,2013-03-02 20:46:00,
2013-03-02 15:01:00,30.7,15.0,30.20,North,349,5.0,-999.0,52,-99.99,,,0.00,weatherlink.com 1.10,2013-03-02 21:01:00,
2013-03-02 15:16:00,32.2,15.0,30.20,North,350,5.0,-999.0,49,-99.99,,,0.00,weatherlink.com 1.10,2013-03-02 21:16:00,
2013-03-02 15:31:00,31.5,12.0,30.20,North,350,3.0,-999.0,45,-99.99,,,0.00,weatherlink.com 1.10,2013-03-02 21:31:00,
2013-03-02 15:46:00,31.3,13.0,30.20,North,350,5.0,-999.0,47,-99.99,,,0.00,weatherlink.com 1.10,2013-03-02 21:46:00,
2013-03-02 16:01:00,31.0,13.0,30.19,North,350,1.0,-999.0,48,-99.99,,,0.00,weatherlink.com 1.10,2013-03-02 22:01:00,
2013-03-02 16:16:00,31.9,13.0,30.19,North,350,1.0,-999.0,46,-99.99,,,0.00,weatherlink.com 1.10,2013-03-02 22:16:00,
2013-03-02 16:33:00,32.1,13.0,30.18,North,350,2.0,-999.0,46,-99.99,,,0.00,weatherlink.com 1.10,2013-03-02 22:33:00,
2013-03-02 16:46:00,31.6,12.0,30.18,North,350,3.0,-999.0,45,-99.99,,,0.00,weatherlink.com 1.10,2013-03-02 22:46:00,
2013-03-02 17:01:00,29.4,13.0,30.19,North,350,2.0,-999.0,50,-99.99,,,0.00,weatherlink.com 1.10,2013-03-02 23:01:00,
2013-03-02 17:16:00,27.5,13.0,30.19,North,350,0.0,-999.0,54,-99.99,,,0.00,weatherlink.com 1.10,2013-03-02 23:16:00,
2013-03-02 17:31:00,26.7,12.0,30.20,North,350,0.0,-999.0,55,-99.99,,,0.00,weatherlink.com 1.10,2013-03-02 23:31:00,
2013-03-02 17:46:00,25.1,11.0,30.20,North,350,0.0,-999.0,56,-99.99,,,0.00,weatherlink.com 1.10,2013-03-02 23:46:00,
2013-03-02 18:01:00,23.5,11.0,30.20,North,350,0.0,-999.0,59,-99.99,,,0.00,weatherlink.com 1.10,2013-03-03 00:01:00,
2013-03-02 18:16:00,22.2,11.0,30.21,North,350,0.0,-999.0,62,-99.99,,,0.00,weatherlink.com 1.10,2013-03-03 00:16:00,
2013-03-02 18:31:00,21.1,11.0,30.21,North,350,0.0,-999.0,64,-99.99,,,0.00,weatherlink.com 1.10,2013-03-03 00:31:00,
2013-03-02 18:46:00,19.9,11.0,30.21,North,350,3.0,-999.0,67,-99.99,,,0.00,weatherlink.com 1.10,2013-03-03 00:46:00,
2013-03-02 19:01:00,20.2,11.0,30.21,North,350,0.0,-999.0,68,-99.99,,,0.00,weatherlink.com 1.10,2013-03-03 01:01:00,
2013-03-02 19:16:00,19.5,10.0,30.21,North,350,0.0,-999.0,67,-99.99,,,0.00,weatherlink.com 1.10,2013-03-03 01:16:00,
2013-03-02 19:31:00,18.8,10.0,30.21,North,350,0.0,-999.0,69,-99.99,,,0.00,weatherlink.com 1.10,2013-03-03 01:31:00,
2013-03-02 19:46:00,18.1,10.0,30.21,North,350,0.0,-999.0,71,-99.99,,,0.00,weatherlink.com 1.10,2013-03-03 01:46:00,
2013-03-02 20:01:00,18.3,11.0,30.21,North,350,0.0,-999.0,72,-99.99,,,0.00,weatherlink.com 1.10,2013-03-03 02:01:00,
2013-03-02 20:16:00,16.9,10.0,30.21,North,350,0.0,-999.0,74,-99.99,,,0.00,weatherlink.com 1.10,2013-03-03 02:16:00,
2013-03-02 20:31:00,15.7,10.0,30.21,North,350,0.0,-999.0,78,-99.99,,,0.00,weatherlink.com 1.10,2013-03-03 02:31:00,
2013-03-02 20:46:00,14.9,10.0,30.21,North,350,0.0,-999.0,80,-99.99,,,0.00,weatherlink.com 1.10,2013-03-03 02:46:00,
2013-03-02 21:01:00,14.3,10.0,30.21,North,350,0.0,-999.0,81,-99.99,,,0.00,weatherlink.com 1.10,2013-03-03 03:01:00,
2013-03-02 21:16:00,14.0,10.0,30.21,North,350,0.0,-999.0,82,-99.99,,,0.00,weatherlink.com 1.10,2013-03-03 03:16:00,
2013-03-02 21:31:00,14.8,9.0,30.21,North,350,2.0,-999.0,79,-99.99,,,0.00,weatherlink.com 1.10,2013-03-03 03:31:00,
2013-03-02 21:46:00,15.6,8.0,30.20,North,350,2.0,-999.0,73,-99.99,,,0.00,weatherlink.com 1.10,2013-03-03 03:46:00,
2013-03-02 22:01:00,14.1,6.0,30.21,North,350,0.0,-999.0,71,-99.99,,,0.00,weatherlink.com 1.10,2013-03-03 04:01:00,
2013-03-02 22:16:00,12.6,6.0,30.21,North,350,0.0,-999.0,76,-99.99,,,0.00,weatherlink.com 1.10,2013-03-03 04:16:00,
2013-03-02 22:31:00,11.7,6.0,30.21,North,350,1.0,-999.0,78,-99.99,,,0.00,weatherlink.com 1.10,2013-03-03 04:31:00,
2013-03-02 22:46:00,14.6,7.0,30.20,North,355,2.0,-999.0,72,-99.99,,,0.00,weatherlink.com 1.10,2013-03-03 04:46:00,
2013-03-02 23:01:00,15.1,7.0,30.20,North,5,6.0,-999.0,69,-99.99,,,0.00,weatherlink.com 1.10,2013-03-03 05:01:00,
2013-03-02 23:16:00,15.2,6.0,30.20,NNE,13,2.0,-999.0,66,-99.99,,,0.00,weatherlink.com 1.10,2013-03-03 05:16:00,
2013-03-02 23:31:00,15.1,5.0,30.20,NE,34,4.0,-999.0,63,-99.99,,,0.00,weatherlink.com 1.10,2013-03-03 05:31:00,
2013-03-02 23:46:00,15.1,5.0,30.19,NE,37,3.0,-999.0,63,-99.99,,,0.00,weatherlink.com 1.10,2013-03-03 05:46:00,